Location: McFarlands Corners
(41.4117°N, 81.3382°W)
Time: 12:52:10
(UTC+00:00)

Courier 1B Rocket - Pass Details

Date: 18 February 2026
Orbit: 920 x 1201 km, 28.2° (Epoch: 10 March)

Event Time Altitude Azimuth Distance (km) Brightness Sun altitude
Rises 05:46:07 0° 253° (WSW) 3,714 - -60.2°
Reaches altitude 10° 05:50:41 10° 225° (SW) 2,830 - -60.1°
Maximum altitude 05:53:16 12° 203° (SSW) 2,698 - -60.0°
Drops below altitude 10° 05:55:55 10° 180° (S) 2,908 - -60.0°
Sets 06:00:47 0° 153° (SSE) 3,934 - -59.8°
